Regional Weather Roundup
Issued by NWS

Home | Current Version | Previous Version | Graphics & Text | Print | Product List | Glossary On
Versions: 1 2 3 4 5 6 7 8 9 10 11 12 13 14 15 16 17 18 19 20 21 22 23 24 25 26 27 28 29 30 31 32 33 34 35 36 37 38 39 40 41 42 43 44 45 46 47 48 49 50
000
ASUS43 KLSX 240307
RWRMO

WEATHER SUMMARY FOR MISSOURI
NATIONAL WEATHER SERVICE SPRINGFIELD MO
1000 PM CDT SAT JUL 23 2016

NOTE: "FAIR" INDICATES FEW OR NO CLOUDS BELOW 12,000 FEET WITH NO
       SIGNIFICANT WEATHER AND/OR OBSTRUCTIONS TO VISIBILITY.
       CURRENT SKY AND/OR WEATHER CONDITIONS ARE NOT AVAILABLE FOR
       CHILLICOTHE AND FARMINGTON.

MOZ001>031-035>038-043-044-053-054-240400-
...NORTHERN AND WESTERN MISSOURI...

CITY           SKY/WX    TMP DP  RH WIND       PRES   REMARKS
KANSAS CTY INT CLOUDY    82  73  74 S9        29.87R
KANSAS C DTWN  MOCLDY    91  71  51 S9        29.85R HX  97
LEE`S SUMMIT   CLOUDY    89  72  56 S13       29.89R HX  96
ST JOSEPH      PTCLDY    84  73  69 S6        29.84R HX  90
CHILLICOTHE      N/A     87  78  74 S6        29.88R HX 100
KIRKSVILLE     CLOUDY    81  77  88 S7        29.90R

$$
MOZ066>068-077>081-088>096-101>105-240400-
...SOUTHWEST MISSOURI...

CITY           SKY/WX    TMP DP  RH WIND       PRES   REMARKS
SPRINGFIELD    CLEAR     85  73  67 S7        29.94S HX  91
JOPLIN         CLEAR     85  74  69 SE6       29.92S HX  92
BRANSON        PTCLDY    84  75  74 CALM      29.97R HX  92

$$
MOZ032>034-039>042-045>050-055>058-069>072-240400-
...CENTRAL MISSOURI...

CITY           SKY/WX    TMP DP  RH WIND       PRES   REMARKS
COLUMBIA       CLEAR     84  77  79 SE5       29.92R HX  94
JEFFERSON CITY CLEAR     82  78  88 CALM      29.90R HX  91
ROLLA          PTCLDY    84  77  79 SE6       29.94R HX  94
SEDALIA        CLEAR     83  77  82 S6        29.92R HX  92
WHITEMAN AFB   CLOUDY    83  77  81 S6        29.89R HX  91
OSAGE BEACH    CLEAR     81  79  94 CALM      29.93R HX  90

$$
MOZ051-052-059>065-240400-
...EAST CENTRAL MISSOURI...

CITY           SKY/WX    TMP DP  RH WIND       PRES   REMARKS
ST LOUIS INTL  PTCLDY    89  74  60 S7        29.95R HX  98
SPIRIT OF STL  CLEAR     85  76  74 SE5       29.92R HX  94
ST CHARLES     CLEAR     82  79  90 SE5       29.92R HX  92

$$
MOZ072>076-082>087-097>100-106>115-240400-
...SOUTH CENTRAL AND SOUTHEAST MISSOURI...

CITY           SKY/WX    TMP DP  RH WIND       PRES   REMARKS
CAPE GIRARDEAU CLEAR     80  76  87 S6        29.96R
FARMINGTON     CLEAR     81  75  82 SE3       29.99R
POPLAR BLUFF   CLOUDY    82  76  81 E5        29.95R
WEST PLAINS    PTCLDY    81  71  71 S3        30.00R

$$


USA.gov is the U.S. government's official web portal to all federal, state and local government web resources and services.